Weather History for Fort Meade, MD

Change the Weather History Date:

Saturday, December 8, 2012

  Actual Average (KBWI) Record (KBWI)
Temperature  
Mean Temperature 48 °F 39 °F  
Max Temperature 53 °F 47 °F 74 °F (1980)
Min Temperature 44 °F 30 °F 10 °F (1882)
Degree Days  
Heating Degree Days 16 26  
Month to date heating degree days 201  
Since 1 July heating degree days 1105  
Cooling Degree Days 0 0  
Month to date cooling degree days 0  
Year to date cooling degree days 1164  
Moisture  
Dew Point 46 °F    
Average Humidity 93    
Maximum Humidity 100    
Minimum Humidity 82    
Precipitation  
Precipitation 0.00 in 0.11 in 1.56 in (1972)
Month to date precipitation 0.94  
Year to date precipitation 39.45  
Snow  
Snow 0.00 in 0.10 in 4.10 in (1989)
Month to date snowfall 0.6  
Since 1 July snowfall 1.0  
Snow Depth -    
Sea Level Pressure  
Sea Level Pressure 29.96 in    
Wind  
Wind Speed 1 mph (South)    
Max Wind Speed 6 mph    
Max Gust Speed -    
Visibility 3 miles    
Events      
T = Trace of Precipitation, MM = Missing Value Source: NWS Daily Summary

Daily Weather History Graph

Daily Weather History Graph

Search for Another Location

Airport:

Trip Planner

Search our weather history database for the weather conditions in past years. The results will help you decide how hot, cold, wet, or windy it might be!

Date:

Astronomy

Dec. 08, 2012 Rise Set
Actual Time 7:13 AM EST 4:44 PM EST
Civil Twilight 6:44 AM EST 5:14 PM EST
Nautical Twilight 6:10 AM EST 5:47 PM EST
Astronomical Twilight 5:38 AM EST 6:20 PM EST
Moon 1:38 AM EST (12/8) 1:11 PM EST (12/8)
Length of Visible Light 10h 30m
Length of Day
9h 30m
Waning Crescent, 28% of the Moon is Illuminated
Dec 8
Waning Crescent
Dec 13
New
Dec 20
First Quarter
Dec 28
Full
Jan 4
Last Quarter

Hourly Weather History & Observations

Time (EST) Temp. Windchill Dew Point Humidity Pressure Visibility Wind Dir Wind Speed Gust Speed Precip Events Conditions
12:18 AM 44.6 °F - 44.6 °F 100% 29.99 in 4.0 mi Calm Calm - N/A   Overcast
12:39 AM 44.6 °F - 44.6 °F 100% 29.98 in 3.0 mi Calm Calm - N/A   Overcast
1:00 AM 44.6 °F - 44.6 °F 100% 29.98 in 2.5 mi Calm Calm - N/A   Overcast
1:45 AM 44.6 °F - 44.6 °F 100% 29.96 in 1.2 mi Calm Calm - N/A   Overcast
2:06 AM 44.6 °F - 44.6 °F 100% 29.96 in 0.5 mi Calm Calm - N/A   Overcast
2:27 AM 44.6 °F - 44.6 °F 100% 29.96 in 0.5 mi Calm Calm - N/A   Overcast
2:48 AM 44.6 °F - 44.6 °F 100% 29.96 in 0.5 mi Calm Calm - N/A   Overcast
3:09 AM 44.6 °F - 44.6 °F 100% 29.96 in 0.5 mi Calm Calm - N/A   Overcast
3:30 AM 46.4 °F - 44.6 °F 93% 29.95 in 0.5 mi Calm Calm - N/A   Overcast
3:51 AM 46.4 °F - 44.6 °F 93% 29.95 in 0.5 mi Calm Calm - N/A   Overcast
4:12 AM 46.4 °F - 44.6 °F 93% 29.94 in 0.2 mi Calm Calm - N/A   Overcast
4:57 AM 44.6 °F - 44.6 °F 100% 29.94 in 0.5 mi Calm Calm - N/A   Overcast
5:18 AM 46.4 °F - 44.6 °F 93% 29.94 in 0.5 mi Calm Calm - N/A   Overcast
5:39 AM 46.4 °F - 44.6 °F 93% 29.94 in 0.5 mi Calm Calm - N/A   Overcast
6:00 AM 44.6 °F 43.1 °F 44.6 °F 100% 29.93 in 0.5 mi ESE 3.5 mph - N/A   Overcast
6:21 AM 44.6 °F - 44.6 °F 100% 29.95 in 0.5 mi Calm Calm - N/A   Overcast
6:42 AM 44.6 °F - 44.6 °F 100% 29.94 in 0.5 mi Calm Calm - N/A   Overcast
7:03 AM 46.4 °F - 44.6 °F 93% 29.95 in 0.5 mi Calm Calm - N/A   Overcast
7:24 AM 46.4 °F - 44.6 °F 93% 29.95 in 0.2 mi Calm Calm - N/A   Overcast
7:45 AM 46.4 °F - 44.6 °F 93% 29.95 in 0.2 mi Calm Calm - N/A   Overcast
8:06 AM 46.4 °F - 44.6 °F 93% 29.96 in 0.2 mi Calm Calm - N/A   Overcast
8:27 AM 46.4 °F - 44.6 °F 93% 29.96 in 0.5 mi Calm Calm - N/A   Overcast
8:48 AM 46.4 °F - 44.6 °F 93% 29.96 in 0.8 mi Calm Calm - N/A   Overcast
9:12 AM 46.4 °F - 46.4 °F 100% 29.97 in 1.2 mi Calm Calm - N/A   Overcast
9:33 AM 46.4 °F - 46.4 °F 100% 29.97 in 2.0 mi Calm Calm - N/A   Overcast
10:15 AM 48.2 °F - 46.4 °F 93% 29.98 in 2.0 mi Calm Calm - N/A   Overcast
10:36 AM 48.2 °F - 46.4 °F 93% 29.97 in 2.0 mi SSW 3.5 mph - N/A   Overcast
10:57 AM 48.2 °F - 46.4 °F 93% 29.97 in 2.5 mi WSW 4.6 mph - N/A   Overcast
11:18 AM 50.0 °F - 46.4 °F 87% 29.96 in 3.0 mi South 4.6 mph - N/A   Overcast
11:39 AM 50.0 °F - 48.2 °F 94% 29.95 in 3.0 mi SSW 3.5 mph - N/A   Overcast
12:00 PM 50.0 °F - 46.4 °F 87% 29.94 in 3.0 mi South 4.6 mph - N/A   Overcast
12:21 PM 51.8 °F - 48.2 °F 88% 29.94 in 3.0 mi SW 3.5 mph - N/A   Overcast
12:42 PM 51.8 °F - 48.2 °F 88% 29.94 in 3.0 mi Calm Calm - N/A   Overcast
1:03 PM 51.8 °F - 48.2 °F 88% 29.93 in 3.0 mi SE 4.6 mph - N/A   Overcast
1:27 PM 51.8 °F - 48.2 °F 88% 29.93 in 4.0 mi SSW 4.6 mph - N/A   Overcast
1:48 PM 53.6 °F - 48.2 °F 82% 29.93 in 4.0 mi Calm Calm - N/A   Overcast
2:09 PM 53.6 °F - 48.2 °F 82% 29.92 in 5.0 mi South 5.8 mph - N/A   Overcast
2:30 PM 53.6 °F - 48.2 °F 82% 29.93 in 7.0 mi South 4.6 mph - N/A   Mostly Cloudy
2:51 PM 53.6 °F - 48.2 °F 82% 29.93 in 7.0 mi Calm Calm - N/A   Mostly Cloudy
3:12 PM 53.6 °F - 48.2 °F 82% 29.93 in 7.0 mi ESE 3.5 mph - N/A   Scattered Clouds
3:33 PM 53.6 °F - 48.2 °F 82% 29.93 in 7.0 mi South 3.5 mph - N/A   Clear
3:54 PM 53.6 °F - 48.2 °F 82% 29.93 in 10.0 mi Calm Calm - N/A   Clear
4:15 PM 53.6 °F - 48.2 °F 82% 29.93 in 10.0 mi South 3.5 mph - N/A   Clear
4:36 PM 51.8 °F - 46.4 °F 82% 29.94 in 10.0 mi SSE 3.5 mph - N/A   Clear
4:57 PM 50.0 °F - 46.4 °F 87% 29.94 in 10.0 mi Calm Calm - N/A   Clear
5:18 PM 46.4 °F - 44.6 °F 93% 29.95 in 7.0 mi Calm Calm - N/A   Clear
5:39 PM 44.6 °F - 42.8 °F 93% 29.95 in 4.0 mi Calm Calm - N/A   Clear
6:03 PM 46.4 °F - 44.6 °F 93% 29.96 in 4.0 mi Calm Calm - N/A   Scattered Clouds
6:24 PM 44.6 °F - 44.6 °F 100% 29.98 in 4.0 mi Calm Calm - N/A   Mostly Cloudy
6:45 PM 46.4 °F 45.2 °F 44.6 °F 93% 29.97 in 5.0 mi SSE 3.5 mph - N/A   Overcast
7:06 PM 46.4 °F - 44.6 °F 93% 29.98 in 7.0 mi Calm Calm - N/A   Overcast
7:27 PM 46.4 °F 44.3 °F 44.6 °F 93% 29.98 in 7.0 mi South 4.6 mph - N/A   Overcast
7:48 PM 46.4 °F - 44.6 °F 93% 29.99 in 5.0 mi Calm Calm - N/A   Mostly Cloudy
8:09 PM 48.2 °F - 46.4 °F 93% 29.99 in 5.0 mi Calm Calm - N/A   Overcast
8:30 PM 50.0 °F - 46.4 °F 87% 30.00 in 2.0 mi Calm Calm - N/A   Overcast
8:51 PM 48.2 °F - 46.4 °F 93% 30.00 in 1.2 mi Calm Calm - N/A   Overcast
9:12 PM 48.2 °F - 46.4 °F 93% 30.01 in 0.5 mi Calm Calm - N/A   Overcast
9:33 PM 50.0 °F - 48.2 °F 94% 30.01 in 0.2 mi Calm Calm - N/A   Overcast
9:54 PM 50.0 °F - 48.2 °F 94% 30.02 in 0.5 mi Calm Calm - N/A   Overcast
10:18 PM 50.0 °F - 48.2 °F 94% 30.02 in 0.2 mi Calm Calm - N/A   Overcast
10:39 PM 50.0 °F - 48.2 °F 94% 30.02 in 0.5 mi Calm Calm - N/A   Overcast
11:21 PM 50.0 °F - 48.2 °F 94% 30.03 in 2.0 mi Calm Calm - N/A   Overcast
11:42 PM 50.0 °F - 48.2 °F 94% 30.05 in 2.5 mi Calm Calm - N/A   Overcast